Weather History for KTEB - February, 2013

Change the Weather History Date:

Friday, February 1, 2013

  Actual Average Record
Temperature  
Mean Temperature 28 °F -  
Max Temperature 32 °F 38 °F 63 °F (2012)
Min Temperature 24 °F 24 °F 7 °F (1993)
Degree Days  
Heating Degree Days 37    
Moisture  
Dew Point 11 °F    
Average Humidity 50    
Maximum Humidity 69    
Minimum Humidity 35    
Precipitation  
Precipitation 0.00 in - - ()
Sea Level Pressure  
Sea Level Pressure 29.95 in    
Wind  
Wind Speed 11 mph (West)    
Max Wind Speed 20 mph    
Max Gust Speed 28 mph    
Visibility 10 miles    
Events      
Averages and records for this station are not official NWS values.
T = Trace of Precipitation, MM = Missing Value Source: NWS Daily Summary

Daily Weather History Graph

Daily Weather History Graph

Search for Another Location

Airport or City:

Trip Planner

Search our weather history database for the weather conditions in past years. The results will help you decide how hot, cold, wet, or windy it might be!

Date:

Astronomy

Feb. 01, 2013 Rise Set
Actual Time 7:06 AM EST 5:13 PM EST
Civil Twilight 6:37 AM EST 5:42 PM EST
Nautical Twilight 6:04 AM EST 6:15 PM EST
Astronomical Twilight 5:32 AM EST 6:47 PM EST
Moon 11:21 PM EST (2/1) 9:35 AM EST (2/1)
Length of Visible Light 11h 05m
Length of Day
10h 07m
Waning Gibbous, 70% of the Moon is Illuminated
Feb 1
Waning Gibbous
Feb 3
Last Quarter
Feb 10
New
Feb 17
First Quarter
Feb 25
Full

Hourly Weather History & Observations

Time (EST) Temp. Windchill Dew Point Humidity Pressure Visibility Wind Dir Wind Speed Gust Speed Precip Events Conditions
12:51 AM 28.9 °F 19.8 °F 10.0 °F 45% 29.80 in 10.0 mi WSW 10.4 mph - N/A   Clear
1:51 AM 28.9 °F 19.2 °F 12.0 °F 49% 29.81 in 10.0 mi WSW 11.5 mph 20.7 mph N/A   Clear
2:51 AM 28.0 °F 20.0 °F 12.0 °F 51% 29.81 in 10.0 mi WSW 8.1 mph - N/A   Scattered Clouds
3:51 AM 26.1 °F 18.4 °F 14.0 °F 60% 29.80 in 10.0 mi SW 6.9 mph - N/A   Clear
4:51 AM 27.0 °F 16.7 °F 12.0 °F 53% 29.81 in 10.0 mi SSW 11.5 mph - N/A   Clear
5:51 AM 28.0 °F 17.5 °F 12.9 °F 53% 29.83 in 10.0 mi SW 12.7 mph - N/A   Scattered Clouds
6:51 AM 28.0 °F 18.6 °F 12.0 °F 51% 29.85 in 10.0 mi West 10.4 mph - N/A   Clear
7:51 AM 28.0 °F 20.8 °F 14.0 °F 56% 29.86 in 10.0 mi West 6.9 mph - N/A   Mostly Cloudy
8:51 AM 28.9 °F 18.6 °F 12.0 °F 49% 29.86 in 10.0 mi WNW 12.7 mph 20.7 mph N/A   Overcast
9:51 AM 28.9 °F 18.2 °F 9.0 °F 43% 29.88 in 10.0 mi WNW 13.8 mph 21.9 mph N/A   Overcast
10:51 AM 30.0 °F 20.0 °F 8.1 °F 40% 29.88 in 10.0 mi WNW 12.7 mph - N/A   Mostly Cloudy
11:51 AM 30.9 °F 19.1 °F 7.0 °F 37% 29.86 in 10.0 mi NW 18.4 mph 27.6 mph N/A   Mostly Cloudy
12:51 PM 30.9 °F 18.7 °F 6.1 °F 35% 29.87 in 10.0 mi WNW 19.6 mph 27.6 mph N/A   Mostly Cloudy
1:51 PM 30.9 °F 19.4 °F 7.0 °F 37% 29.90 in 10.0 mi WNW 17.3 mph 24.2 mph N/A   Mostly Cloudy
2:51 PM 30.0 °F 21.1 °F 10.0 °F 43% 29.93 in 10.0 mi WNW 10.4 mph 24.2 mph N/A   Scattered Clouds
3:51 PM 32.0 °F 20.8 °F 9.0 °F 38% 29.97 in 10.0 mi WNW 17.3 mph 27.6 mph N/A   Overcast
4:51 PM 28.9 °F 16.1 °F 10.0 °F 45% 30.01 in 10.0 mi WNW 19.6 mph 25.3 mph N/A   Scattered Clouds
5:51 PM 26.1 °F 15.6 °F 14.0 °F 60% 30.06 in 10.0 mi WNW 11.5 mph 17.3 mph 0.00 in   Scattered Clouds
6:51 PM 26.1 °F 16.2 °F 12.9 °F 58% 30.11 in 10.0 mi WNW 10.4 mph - N/A   Partly Cloudy
7:51 PM 26.1 °F 17.6 °F 12.0 °F 55% 30.14 in 10.0 mi WNW 8.1 mph - N/A   Clear
8:51 PM 24.8 °F 16.9 °F 15.8 °F 69% 30.17 in 9.0 mi West 6.9 mph - N/A   Scattered Clouds
9:51 PM 25.0 °F 16.3 °F 15.1 °F 66% 30.19 in 10.0 mi WSW 8.1 mph - N/A   Scattered Clouds
10:51 PM 24.1 °F 14.4 °F 12.9 °F 62% 30.21 in 10.0 mi West 9.2 mph - N/A   Clear
11:51 PM 24.1 °F 16.0 °F 10.9 °F 57% 30.23 in 10.0 mi West 6.9 mph - N/A   Clear